| time (UTC) | temp F | wind direction | speed MPH | gust MPH | rain 1hr in | rain 24hr in | rain mn in | humidity % | barometer mb |
| 20260507112604 | 49 | 214 | 8.0 | 12.0 | 0.00 | 0.00 | 0.00 | 35 | 1018.9 |
| 20260507111605 | 50 | 331 | 5.0 | 10.0 | 0.00 | 0.00 | 0.00 | 29 | 1019.0 |
| 20260507110604 | 49 | 146 | 1.0 | 10.0 | 0.00 | 0.00 | 0.00 | 30 | 1019.1 |
| 20260507110104 | 49 | 42 | 2.0 | 7.0 | 0.00 | 0.00 | 0.00 | 31 | 1019.2 |
| 20260507105604 | 49 | 44 | 5.0 | 10.0 | 0.00 | 0.00 | 0.00 | 31 | 1019.2 |
| 20260507105104 | 49 | 70 | 5.0 | 9.0 | 0.00 | 0.00 | 0.00 | 31 | 1019.1 |
| 20260507104605 | 48 | 25 | 2.0 | 9.0 | 0.00 | 0.00 | 0.00 | 32 | 1019.1 |
| 20260507104104 | 48 | 68 | 4.0 | 9.0 | 0.00 | 0.00 | 0.00 | 32 | 1019.1 |
| 20260507103604 | 49 | 355 | 1.0 | 10.0 | 0.00 | 0.00 | 0.00 | 33 | 1019.1 |
| 20260507103104 | 49 | 91 | 3.0 | 10.0 | 0.00 | 0.00 | 0.00 | 33 | 1019.1 |
| 20260507102605 | 48 | 43 | 3.0 | 12.0 | 0.00 | 0.00 | 0.00 | 34 | 1019.1 |
| 20260507102104 | 47 | 100 | 3.0 | 9.0 | 0.00 | 0.00 | 0.00 | 36 | 1019.1 |
| 20260507101104 | 47 | 0 | 2.0 | 12.0 | 0.00 | 0.00 | 0.00 | 34 | 1019.1 |
| 20260507100604 | 48 | 354 | 6.0 | 9.0 | 0.00 | 0.00 | 0.00 | 32 | 1019.1 |
| 20260507100104 | 48 | 26 | 3.0 | 7.0 | 0.00 | 0.00 | 0.00 | 33 | 1019.1 |
| 20260507095604 | 47 | 300 | 1.0 | 6.0 | 0.00 | 0.00 | 0.00 | 35 | 1019.0 |
| 20260507095104 | 47 | 24 | 2.0 | 8.0 | 0.00 | 0.00 | 0.00 | 34 | 1019.1 |
| 20260507094104 | 46 | 105 | 5.0 | 9.0 | 0.00 | 0.00 | 0.00 | 35 | 1019.0 |
| 20260507093604 | 47 | 338 | 5.0 | 8.0 | 0.00 | 0.00 | 0.00 | 36 | 1019.1 |
| 20260507093104 | 47 | 136 | 3.0 | 9.0 | 0.00 | 0.00 | 0.00 | 35 | 1019.0 |
| 20260507092604 | 47 | 59 | 4.0 | 8.0 | 0.00 | 0.00 | 0.00 | 37 | 1019.1 |
| 20260507092104 | 46 | 45 | 2.0 | 5.0 | 0.00 | 0.00 | 0.00 | 39 | 1019.0 |
| 20260507091604 | 45 | 108 | 1.0 | 8.0 | 0.00 | 0.00 | 0.00 | 37 | 1019.0 |
| 20260507091105 | 46 | 6 | 5.0 | 9.0 | 0.00 | 0.00 | 0.00 | 36 | 1019.1 |
| 20260507090604 | 46 | 147 | 3.0 | 6.0 | 0.00 | 0.00 | 0.00 | 39 | 1019.0 |
| 20260507090105 | 45 | 67 | 2.0 | 8.0 | 0.00 | 0.00 | 0.00 | 39 | 1019.0 |
| 20260507085604 | 44 | 123 | 2.0 | 7.0 | 0.00 | 0.00 | 0.00 | 42 | 1019.0 |
| 20260507085105 | 44 | 204 | 2.0 | 3.0 | 0.00 | 0.00 | 0.00 | 39 | 1018.9 |
| 20260507084604 | 44 | 113 | 0.0 | 5.0 | 0.00 | 0.00 | 0.00 | 39 | 1019.0 |
| 20260507084104 | 44 | 115 | 0.0 | 5.0 | 0.00 | 0.00 | 0.00 | 40 | 1019.0 |
| 20260507083605 | 44 | 95 | 2.0 | 5.0 | 0.00 | 0.00 | 0.00 | 39 | 1019.0 |
| 20260507083104 | 44 | 61 | 0.0 | 2.0 | 0.00 | 0.00 | 0.00 | 43 | 1019.0 |
| 20260507082604 | 43 | 60 | 1.0 | 6.0 | 0.00 | 0.00 | 0.00 | 42 | 1019.0 |
| 20260507081104 | 41 | 238 | 0.0 | 2.0 | 0.00 | 0.00 | 0.00 | 46 | 1019.0 |
| 20260507080604 | 41 | 238 | 0.0 | 3.0 | 0.00 | 0.00 | 0.00 | 47 | 1018.9 |
| 20260507080105 | 40 | 238 | 1.0 | 3.0 | 0.00 | 0.00 | 0.00 | 47 | 1018.9 |
| 20260507075604 | 41 | 187 | 0.0 | 1.0 | 0.00 | 0.00 | 0.00 | 48 | 1018.9 |
| 20260507074604 | 40 | 189 | 0.0 | 2.0 | 0.00 | 0.00 | 0.00 | 52 | 1018.8 |
| 20260507074105 | 40 | 189 | 1.0 | 3.0 | 0.00 | 0.00 | 0.00 | 53 | 1018.8 |
| 20260507073605 | 39 | 189 | 0.0 | 3.0 | 0.00 | 0.00 | 0.00 | 54 | 1018.8 |
| 20260507073104 | 39 | 190 | 2.0 | 3.0 | 0.00 | 0.00 | 0.00 | 54 | 1018.8 |
| 20260507072605 | 39 | 198 | 0.0 | 3.0 | 0.00 | 0.00 | 0.00 | 59 | 1018.8 |
| 20260507072104 | 38 | 198 | 1.0 | 3.0 | 0.00 | 0.00 | 0.00 | 58 | 1018.8 |
| 20260507071604 | 38 | 238 | 1.0 | 3.0 | 0.00 | 0.00 | 0.00 | 60 | 1018.8 |
| 20260507071104 | 38 | 264 | 0.0 | 2.0 | 0.00 | 0.00 | 0.00 | 59 | 1018.8 |
| 20260507070605 | 37 | 265 | 1.0 | 3.0 | 0.00 | 0.00 | 0.00 | 60 | 1018.7 |
| 20260507070104 | 37 | 266 | 0.0 | 2.0 | 0.00 | 0.00 | 0.00 | 62 | 1018.7 |
| 20260507065105 | 37 | 266 | 0.0 | 2.0 | 0.00 | 0.00 | 0.00 | 65 | 1018.8 |
| 20260507064604 | 37 | 266 | 0.0 | 0.0 | 0.00 | 0.00 | 0.00 | 66 | 1018.7 |
| 20260507064104 | 36 | 266 | 0.0 | 0.0 | 0.00 | 0.00 | 0.00 | 68 | 1018.7 |
| 20260507063605 | 35 | 266 | 0.0 | 0.0 | 0.00 | 0.00 | 0.00 | 71 | 1018.7 |
| 20260507063104 | 34 | 266 | 0.0 | 0.0 | 0.00 | 0.00 | 0.00 | 72 | 1018.7 |
| 20260507062604 | 33 | 266 | 0.0 | 0.0 | 0.00 | 0.00 | 0.00 | 72 | 1018.8 |
| 20260507062105 | 33 | 266 | 0.0 | 0.0 | 0.00 | 0.00 | 0.00 | 75 | 1018.7 |
| 20260507061605 | 32 | 266 | 0.0 | 0.0 | 0.00 | 0.00 | 0.00 | 77 | 1018.7 |
| 20260507061104 | 31 | 266 | 0.0 | 0.0 | 0.00 | 0.00 | 0.00 | 77 | 1018.7 |
| 20260507060604 | 31 | 266 | 0.0 | 0.0 | 0.00 | 0.00 | 0.00 | 79 | 1018.7 |
| 20260507060105 | 31 | 266 | 0.0 | 0.0 | 0.00 | 0.00 | 0.00 | 80 | 1018.7 |
| 20260507055104 | 30 | 266 | 0.0 | 0.0 | 0.00 | 0.00 | 0.00 | 83 | 1018.7 |
| 20260507054104 | 29 | 266 | 0.0 | 0.0 | 0.00 | 0.00 | 0.00 | 87 | 1018.7 |
| 20260507053604 | 27 | 266 | 0.0 | 0.0 | 0.00 | 0.00 | 0.00 | 88 | 1018.7 |
| 20260507052604 | 26 | 266 | 0.0 | 0.0 | 0.00 | 0.00 | 0.00 | 90 | 1018.7 |
| 20260507051605 | 24 | 266 | 0.0 | 0.0 | 0.00 | 0.00 | 0.00 | 91 | 1018.7 |
| 20260507050604 | 23 | 266 | 0.0 | 0.0 | 0.00 | 0.00 | 0.00 | 90 | 1018.7 |
| 20260507045604 | 22 | 266 | 0.0 | 0.0 | 0.00 | 0.00 | 0.00 | 90 | 1018.7 |
| 20260507045104 | 22 | 266 | 0.0 | 0.0 | 0.00 | 0.00 | 0.00 | 90 | 1018.7 |
| 20260507044604 | 22 | 266 | 0.0 | 0.0 | 0.00 | 0.00 | 0.00 | 90 | 1018.6 |
| 20260507044104 | 22 | 266 | 0.0 | 0.0 | 0.00 | 0.00 | 0.00 | 90 | 1018.5 |
| 20260507043604 | 22 | 266 | 0.0 | 0.0 | 0.00 | 0.00 | 0.00 | 90 | 1018.5 |
| 20260507043104 | 22 | 266 | 0.0 | 0.0 | 0.00 | 0.00 | 0.00 | 90 | 1018.5 |
| 20260507042605 | 22 | 266 | 0.0 | 0.0 | 0.00 | 0.00 | 0.00 | 90 | 1018.4 |
| 20260507042104 | 22 | 266 | 0.0 | 0.0 | 0.00 | 0.00 | 0.00 | 90 | 1018.4 |
| 20260507041604 | 22 | 266 | 0.0 | 0.0 | 0.00 | 0.00 | 0.00 | 90 | 1018.4 |
| 20260507041104 | 22 | 266 | 0.0 | 0.0 | 0.00 | 0.00 | 0.00 | 90 | 1018.4 |
| 20260507035604 | 21 | 266 | 0.0 | 0.0 | 0.00 | 0.00 | 0.00 | 90 | 1018.3 |
| 20260507035104 | 21 | 266 | 0.0 | 0.0 | 0.00 | 0.00 | 0.00 | 90 | 1018.3 |
| 20260507034605 | 21 | 266 | 0.0 | 0.0 | 0.00 | 0.00 | 0.00 | 90 | 1018.2 |
| 20260507034104 | 21 | 266 | 0.0 | 0.0 | 0.00 | 0.00 | 0.00 | 90 | 1018.2 |
| 20260507033604 | 21 | 266 | 0.0 | 0.0 | 0.00 | 0.00 | 0.00 | 89 | 1018.1 |
| 20260507033105 | 22 | 266 | 0.0 | 0.0 | 0.00 | 0.00 | 0.00 | 90 | 1018.1 |
| 20260507032104 | 22 | 266 | 0.0 | 0.0 | 0.00 | 0.00 | 0.00 | 90 | 1018.1 |
| 20260507031605 | 22 | 266 | 0.0 | 0.0 | 0.00 | 0.00 | 0.00 | 89 | 1018.1 |
| 20260507031104 | 22 | 266 | 0.0 | 0.0 | 0.00 | 0.00 | 0.00 | 90 | 1018.1 |
| 20260507030604 | 22 | 265 | 0.0 | 0.0 | 0.00 | 0.00 | 0.00 | 90 | 1018.1 |
| 20260507025104 | 22 | 266 | 0.0 | 0.0 | 0.00 | 0.00 | 0.00 | 90 | 1018.0 |
| 20260507024605 | 22 | 266 | 0.0 | 0.0 | 0.00 | 0.00 | 0.00 | 89 | 1017.9 |
| 20260507024104 | 22 | 265 | 0.0 | 0.0 | 0.00 | 0.00 | 0.00 | 89 | 1018.0 |
| 20260507023604 | 22 | 266 | 0.0 | 0.0 | 0.00 | 0.00 | 0.00 | 90 | 1017.9 |
| 20260507022604 | 22 | 266 | 0.0 | 0.0 | 0.00 | 0.00 | 0.00 | 89 | 1017.8 |
| 20260507022105 | 22 | 265 | 0.0 | 0.0 | 0.00 | 0.00 | 0.00 | 89 | 1017.8 |
| 20260507021605 | 22 | 266 | 0.0 | 0.0 | 0.00 | 0.00 | 0.00 | 89 | 1017.8 |
| 20260507021104 | 22 | 266 | 0.0 | 0.0 | 0.00 | 0.00 | 0.00 | 89 | 1017.8 |
| 20260507020605 | 23 | 266 | 0.0 | 0.0 | 0.00 | 0.00 | 0.00 | 89 | 1017.8 |
| 20260507020105 | 23 | 266 | 0.0 | 0.0 | 0.00 | 0.00 | 0.00 | 89 | 1017.7 |
| 20260507015604 | 23 | 266 | 0.0 | 0.0 | 0.00 | 0.00 | 0.00 | 89 | 1017.7 |
| 20260507014605 | 23 | 266 | 0.0 | 0.0 | 0.00 | 0.00 | 0.00 | 89 | 1017.7 |
| 20260507014104 | 23 | 266 | 0.0 | 0.0 | 0.00 | 0.00 | 0.00 | 89 | 1017.7 |
| 20260507013604 | 23 | 266 | 0.0 | 0.0 | 0.00 | 0.00 | 0.00 | 89 | 1017.7 |
| 20260507013105 | 23 | 266 | 0.0 | 0.0 | 0.00 | 0.00 | 0.00 | 89 | 1017.7 |
| 20260507012604 | 23 | 266 | 0.0 | 0.0 | 0.00 | 0.00 | 0.00 | 89 | 1017.7 |
| 20260507011604 | 23 | 266 | 0.0 | 0.0 | 0.00 | 0.00 | 0.00 | 87 | 1017.6 |
| 20260507010605 | 24 | 266 | 0.0 | 0.0 | 0.00 | 0.00 | 0.00 | 88 | 1017.6 |
| 20260507010104 | 24 | 265 | 0.0 | 0.0 | 0.00 | 0.00 | 0.00 | 88 | 1017.5 |
| 20260507005604 | 24 | 266 | 0.0 | 0.0 | 0.00 | 0.00 | 0.00 | 88 | 1017.5 |
| 20260507005105 | 24 | 266 | 0.0 | 0.0 | 0.00 | 0.00 | 0.00 | 88 | 1017.5 |
| 20260507004604 | 24 | 266 | 0.0 | 0.0 | 0.00 | 0.00 | 0.00 | 88 | 1017.5 |
| 20260507004104 | 24 | 266 | 0.0 | 0.0 | 0.00 | 0.00 | 0.00 | 87 | 1017.5 |
| 20260507003605 | 24 | 266 | 0.0 | 0.0 | 0.00 | 0.00 | 0.00 | 88 | 1017.4 |
| 20260507003104 | 24 | 266 | 0.0 | 0.0 | 0.00 | 0.00 | 0.00 | 88 | 1017.4 |
| 20260507002604 | 24 | 265 | 0.0 | 0.0 | 0.00 | 0.00 | 0.00 | 87 | 1017.4 |
| 20260507002105 | 24 | 266 | 0.0 | 0.0 | 0.00 | 0.00 | 0.00 | 87 | 1017.3 |
| 20260507001604 | 24 | 266 | 0.0 | 0.0 | 0.00 | 0.00 | 0.00 | 87 | 1017.3 |
| 20260507001104 | 25 | 266 | 0.0 | 0.0 | 0.00 | 0.00 | 0.00 | 86 | 1017.3 |
| 20260507000605 | 25 | 266 | 0.0 | 0.0 | 0.00 | 0.00 | 0.00 | 86 | 1017.3 |
| 20260507000104 | 25 | 266 | 0.0 | 0.0 | 0.00 | 0.00 | 0.00 | 86 | 1017.3 |
| 20260506235605 | 25 | 266 | 0.0 | 0.0 | 0.00 | 0.00 | 0.00 | 86 | 1017.3 |
| 20260506235105 | 25 | 266 | 0.0 | 0.0 | 0.00 | 0.00 | 0.00 | 86 | 1017.4 |
| 20260506234604 | 25 | 266 | 0.0 | 0.0 | 0.00 | 0.00 | 0.00 | 86 | 1017.4 |
| 20260506233605 | 26 | 266 | 0.0 | 0.0 | 0.00 | 0.00 | 0.00 | 86 | 1017.3 |
| 20260506233104 | 26 | 266 | 0.0 | 0.0 | 0.00 | 0.00 | 0.00 | 85 | 1017.3 |
| 20260506232604 | 26 | 266 | 0.0 | 0.0 | 0.00 | 0.00 | 0.00 | 85 | 1017.2 |
| 20260506231604 | 27 | 266 | 0.0 | 0.0 | 0.00 | 0.00 | 0.00 | 84 | 1017.1 |
| 20260506231105 | 27 | 266 | 0.0 | 0.0 | 0.00 | 0.00 | 0.00 | 83 | 1017.1 |
| 20260506230604 | 27 | 266 | 0.0 | 0.0 | 0.00 | 0.00 | 0.00 | 83 | 1017.1 |
| 20260506230104 | 27 | 266 | 0.0 | 0.0 | 0.00 | 0.00 | 0.00 | 83 | 1017.1 |
| 20260506225604 | 27 | 266 | 0.0 | 0.0 | 0.00 | 0.00 | 0.00 | 83 | 1017.1 |
| 20260506225104 | 28 | 266 | 0.0 | 0.0 | 0.00 | 0.00 | 0.00 | 83 | 1017.1 |
| 20260506224105 | 28 | 266 | 0.0 | 0.0 | 0.00 | 0.00 | 0.00 | 82 | 1017.1 |
| 20260506223605 | 28 | 266 | 0.0 | 0.0 | 0.00 | 0.00 | 0.00 | 82 | 1017.1 |
| 20260506223104 | 28 | 266 | 0.0 | 0.0 | 0.00 | 0.00 | 0.00 | 82 | 1017.1 |
| 20260506222604 | 28 | 266 | 0.0 | 0.0 | 0.00 | 0.00 | 0.00 | 82 | 1017.1 |
| 20260506222105 | 28 | 266 | 0.0 | 0.0 | 0.00 | 0.00 | 0.00 | 81 | 1017.1 |
| 20260506221604 | 29 | 266 | 0.0 | 0.0 | 0.00 | 0.00 | 0.00 | 79 | 1017.0 |
| 20260506221104 | 29 | 265 | 0.0 | 0.0 | 0.00 | 0.00 | 0.00 | 79 | 1017.0 |
| 20260506220604 | 29 | 266 | 0.0 | 0.0 | 0.00 | 0.00 | 0.00 | 78 | 1016.9 |
| 20260506220105 | 29 | 266 | 0.0 | 0.0 | 0.00 | 0.00 | 0.00 | 78 | 1016.9 |
| 20260506215604 | 29 | 265 | 0.0 | 0.0 | 0.00 | 0.00 | 0.00 | 78 | 1016.9 |
| 20260506214605 | 29 | 266 | 0.0 | 0.0 | 0.00 | 0.00 | 0.00 | 78 | 1016.8 |
| 20260506213604 | 30 | 266 | 0.0 | 0.0 | 0.00 | 0.00 | 0.00 | 77 | 1016.8 |
| 20260506213104 | 30 | 266 | 0.0 | 0.0 | 0.00 | 0.00 | 0.00 | 76 | 1016.8 |
| 20260506212604 | 30 | 266 | 0.0 | 0.0 | 0.00 | 0.00 | 0.00 | 76 | 1016.7 |
| 20260506212104 | 30 | 266 | 0.0 | 0.0 | 0.00 | 0.00 | 0.00 | 75 | 1016.7 |
| 20260506211104 | 31 | 266 | 0.0 | 0.0 | 0.00 | 0.00 | 0.00 | 73 | 1016.6 |
| 20260506210605 | 32 | 266 | 0.0 | 0.0 | 0.00 | 0.00 | 0.00 | 72 | 1016.6 |
| 20260506210105 | 32 | 266 | 0.0 | 0.0 | 0.00 | 0.00 | 0.00 | 71 | 1016.5 |
| 20260506205604 | 33 | 266 | 0.0 | 2.0 | 0.00 | 0.00 | 0.00 | 70 | 1016.5 |
| 20260506205105 | 33 | 266 | 0.0 | 5.0 | 0.00 | 0.00 | 0.00 | 70 | 1016.5 |
| 20260506204104 | 33 | 270 | 1.0 | 3.0 | 0.00 | 0.00 | 0.00 | 68 | 1016.5 |
| 20260506203604 | 34 | 270 | 0.0 | 2.0 | 0.00 | 0.00 | 0.00 | 67 | 1016.4 |
| 20260506203105 | 34 | 270 | 2.0 | 3.0 | 0.00 | 0.00 | 0.00 | 66 | 1016.5 |
| 20260506202604 | 35 | 265 | 1.0 | 5.0 | 0.00 | 0.00 | 0.00 | 66 | 1016.5 |
| 20260506202105 | 34 | 275 | 2.0 | 5.0 | 0.00 | 0.00 | 0.00 | 66 | 1016.4 |
| 20260506201604 | 35 | 246 | 4.0 | 6.0 | 0.00 | 0.00 | 0.00 | 66 | 1016.4 |
| 20260506201104 | 35 | 284 | 2.0 | 7.0 | 0.00 | 0.00 | 0.00 | 65 | 1016.4 |
| 20260506200604 | 35 | 293 | 1.0 | 6.0 | 0.00 | 0.00 | 0.00 | 64 | 1016.4 |
| 20260506200104 | 35 | 296 | 3.0 | 7.0 | 0.00 | 0.00 | 0.00 | 64 | 1016.4 |
| 20260506195605 | 35 | 287 | 1.0 | 3.0 | 0.00 | 0.00 | 0.00 | 64 | 1016.4 |
| 20260506195105 | 36 | 287 | 1.0 | 3.0 | 0.00 | 0.00 | 0.00 | 63 | 1016.3 |
| 20260506194604 | 36 | 287 | 3.0 | 5.0 | 0.00 | 0.00 | 0.00 | 62 | 1016.4 |
| 20260506193605 | 36 | 287 | 3.0 | 6.0 | 0.00 | 0.00 | 0.00 | 61 | 1016.3 |
| 20260506193104 | 37 | 278 | 3.0 | 6.0 | 0.00 | 0.00 | 0.00 | 60 | 1016.2 |
| 20260506192604 | 37 | 293 | 2.0 | 3.0 | 0.00 | 0.00 | 0.00 | 60 | 1016.2 |
| 20260506191604 | 37 | 288 | 2.0 | 5.0 | 0.00 | 0.00 | 0.00 | 59 | 1016.1 |
| 20260506191104 | 37 | 290 | 3.0 | 7.0 | 0.00 | 0.00 | 0.00 | 59 | 1016.0 |
| 20260506190605 | 37 | 308 | 3.0 | 6.0 | 0.00 | 0.00 | 0.00 | 59 | 1016.0 |
| 20260506190105 | 38 | 296 | 2.0 | 6.0 | 0.00 | 0.00 | 0.00 | 60 | 1015.9 |
| 20260506185104 | 38 | 291 | 3.0 | 8.0 | 0.00 | 0.00 | 0.00 | 60 | 1015.9 |
| 20260506184604 | 38 | 282 | 0.0 | 3.0 | 0.00 | 0.00 | 0.00 | 60 | 1015.8 |
| 20260506184104 | 38 | 281 | 2.0 | 3.0 | 0.00 | 0.00 | 0.00 | 60 | 1015.8 |
| 20260506182604 | 39 | 280 | 2.0 | 6.0 | 0.00 | 0.00 | 0.00 | 60 | 1015.8 |
| 20260506182104 | 39 | 254 | 4.0 | 7.0 | 0.00 | 0.00 | 0.00 | 60 | 1015.8 |
| 20260506181604 | 39 | 288 | 2.0 | 6.0 | 0.00 | 0.00 | 0.00 | 60 | 1015.9 |
| 20260506181104 | 39 | 317 | 3.0 | 8.0 | 0.00 | 0.00 | 0.00 | 59 | 1015.8 |
| 20260506180104 | 39 | 306 | 5.0 | 9.0 | 0.00 | 0.00 | 0.00 | 58 | 1015.7 |
| 20260506175604 | 39 | 326 | 5.0 | 10.0 | 0.00 | 0.00 | 0.00 | 58 | 1015.7 |
| 20260506174605 | 40 | 271 | 3.0 | 6.0 | 0.00 | 0.00 | 0.00 | 59 | 1015.6 |
| 20260506174104 | 40 | 290 | 2.0 | 7.0 | 0.00 | 0.00 | 0.00 | 58 | 1015.7 |
| 20260506173604 | 40 | 285 | 1.0 | 3.0 | 0.00 | 0.00 | 0.00 | 59 | 1015.7 |
| 20260506173104 | 40 | 296 | 2.0 | 5.0 | 0.00 | 0.00 | 0.00 | 59 | 1015.6 |
| 20260506172604 | 40 | 297 | 2.0 | 6.0 | 0.00 | 0.00 | 0.00 | 58 | 1015.5 |
| 20260506172104 | 40 | 260 | 3.0 | 5.0 | 0.00 | 0.00 | 0.00 | 58 | 1015.6 |
| 20260506171605 | 40 | 309 | 4.0 | 8.0 | 0.00 | 0.00 | 0.00 | 57 | 1015.6 |
| 20260506170605 | 40 | 302 | 3.0 | 6.0 | 0.00 | 0.00 | 0.00 | 57 | 1015.6 |
| 20260506170104 | 40 | 336 | 3.0 | 7.0 | 0.00 | 0.00 | 0.00 | 57 | 1015.6 |
| 20260506165605 | 40 | 310 | 3.0 | 9.0 | 0.00 | 0.00 | 0.00 | 56 | 1015.6 |
| 20260506165104 | 40 | 325 | 4.0 | 8.0 | 0.00 | 0.00 | 0.00 | 56 | 1015.6 |
| 20260506164604 | 41 | 311 | 4.0 | 6.0 | 0.00 | 0.00 | 0.00 | 55 | 1015.7 |
| 20260506163604 | 41 | 310 | 2.0 | 8.0 | 0.00 | 0.00 | 0.00 | 55 | 1015.7 |
| 20260506162604 | 41 | 324 | 5.0 | 7.0 | 0.00 | 0.00 | 0.00 | 56 | 1015.6 |
| 20260506161605 | 42 | 330 | 1.0 | 8.0 | 0.00 | 0.00 | 0.00 | 56 | 1015.5 |
| 20260506161104 | 41 | 290 | 1.0 | 9.0 | 0.00 | 0.00 | 0.00 | 57 | 1015.6 |
| 20260506160604 | 41 | 298 | 5.0 | 12.0 | 0.00 | 0.00 | 0.00 | 55 | 1015.6 |
| 20260506160105 | 42 | 309 | 3.0 | 9.0 | 0.00 | 0.00 | 0.00 | 55 | 1015.7 |
| 20260506155604 | 42 | 300 | 2.0 | 8.0 | 0.00 | 0.00 | 0.00 | 55 | 1015.7 |
| 20260506155104 | 42 | 321 | 4.0 | 8.0 | 0.00 | 0.00 | 0.00 | 54 | 1015.7 |
| 20260506154604 | 42 | 310 | 2.0 | 6.0 | 0.00 | 0.00 | 0.00 | 54 | 1015.7 |
| 20260506154104 | 41 | 258 | 3.0 | 7.0 | 0.00 | 0.00 | 0.00 | 59 | 1015.7 |
| 20260506153604 | 40 | 316 | 6.0 | 12.0 | 0.00 | 0.00 | 0.00 | 57 | 1015.8 |
| 20260506153104 | 40 | 314 | 6.0 | 10.0 | 0.00 | 0.00 | 0.00 | 59 | 1015.8 |
| 20260506152604 | 40 | 296 | 3.0 | 5.0 | 0.00 | 0.00 | 0.00 | 60 | 1015.8 |
| 20260506151605 | 41 | 286 | 5.0 | 9.0 | 0.00 | 0.00 | 0.00 | 56 | 1015.8 |
| 20260506151104 | 42 | 292 | 4.0 | 9.0 | 0.00 | 0.00 | 0.00 | 57 | 1015.8 |
| 20260506150605 | 43 | 290 | 3.0 | 9.0 | 0.00 | 0.00 | 0.00 | 57 | 1015.8 |
| 20260506150105 | 42 | 220 | 3.0 | 12.0 | 0.00 | 0.00 | 0.00 | 57 | 1015.7 |
| 20260506145604 | 42 | 234 | 7.0 | 12.0 | 0.00 | 0.00 | 0.00 | 57 | 1015.8 |
| 20260506145104 | 42 | 270 | 2.0 | 7.0 | 0.00 | 0.00 | 0.00 | 58 | 1015.8 |
| 20260506144604 | 41 | 339 | 3.0 | 12.0 | 0.00 | 0.00 | 0.00 | 60 | 1015.8 |
| 20260506144104 | 40 | 228 | 6.0 | 10.0 | 0.00 | 0.00 | 0.00 | 60 | 1015.9 |
| 20260506143105 | 40 | 245 | 5.0 | 10.0 | 0.00 | 0.00 | 0.00 | 60 | 1015.9 |
| 20260506142605 | 40 | 326 | 3.0 | 8.0 | 0.00 | 0.00 | 0.00 | 59 | 1015.9 |
| 20260506142104 | 41 | 292 | 3.0 | 8.0 | 0.00 | 0.00 | 0.00 | 58 | 1016.0 |
| 20260506141605 | 41 | 287 | 7.0 | 12.0 | 0.00 | 0.00 | 0.00 | 56 | 1016.0 |
| 20260506141105 | 41 | 299 | 3.0 | 8.0 | 0.00 | 0.00 | 0.00 | 54 | 1015.9 |
| 20260506140605 | 42 | 305 | 4.0 | 10.0 | 0.00 | 0.00 | 0.00 | 52 | 1015.9 |
| 20260506140104 | 42 | 319 | 2.0 | 5.0 | 0.00 | 0.00 | 0.00 | 51 | 1015.9 |
| 20260506135604 | 42 | 288 | 5.0 | 10.0 | 0.00 | 0.00 | 0.00 | 51 | 1016.0 |
| 20260506135105 | 42 | 211 | 3.0 | 10.0 | 0.00 | 0.00 | 0.00 | 50 | 1015.8 |
| 20260506134604 | 41 | 298 | 1.0 | 8.0 | 0.00 | 0.00 | 0.00 | 50 | 1015.8 |
| 20260506134104 | 41 | 253 | 5.0 | 9.0 | 0.00 | 0.00 | 0.00 | 50 | 1015.8 |
| 20260506133604 | 41 | 294 | 6.0 | 12.0 | 0.00 | 0.00 | 0.00 | 50 | 1015.8 |
| 20260506132604 | 41 | 321 | 0.0 | 7.0 | 0.00 | 0.00 | 0.00 | 51 | 1015.8 |
| 20260506132104 | 40 | 244 | 3.0 | 7.0 | 0.00 | 0.00 | 0.00 | 51 | 1015.8 |
| 20260506131605 | 41 | 261 | 7.0 | 12.0 | 0.00 | 0.00 | 0.00 | 54 | 1015.9 |
| 20260506130604 | 43 | 304 | 2.0 | 9.0 | 0.00 | 0.00 | 0.00 | 47 | 1015.9 |
| 20260506130105 | 43 | 307 | 3.0 | 8.0 | 0.00 | 0.00 | 0.00 | 49 | 1015.9 |
| 20260506125605 | 42 | 207 | 2.0 | 7.0 | 0.00 | 0.00 | 0.00 | 50 | 1015.9 |
| 20260506125104 | 41 | 275 | 2.0 | 8.0 | 0.00 | 0.00 | 0.00 | 50 | 1016.1 |
| 20260506124604 | 42 | 313 | 5.0 | 10.0 | 0.00 | 0.00 | 0.00 | 51 | 1016.1 |
| 20260506124104 | 43 | 297 | 3.0 | 8.0 | 0.00 | 0.00 | 0.00 | 51 | 1016.1 |
| 20260506123604 | 43 | 200 | 2.0 | 9.0 | 0.00 | 0.00 | 0.00 | 52 | 1016.0 |
| 20260506123105 | 42 | 218 | 5.0 | 16.0 | 0.00 | 0.00 | 0.00 | 52 | 1015.9 |
| 20260506122604 | 42 | 188 | 3.0 | 7.0 | 0.00 | 0.00 | 0.00 | 52 | 1015.9 |
| 20260506121604 | 41 | 210 | 7.0 | 14.0 | 0.00 | 0.00 | 0.00 | 53 | 1016.0 |
| 20260506121104 | 40 | 230 | 6.0 | 10.0 | 0.00 | 0.00 | 0.00 | 57 | 1016.0 |
| 20260506120604 | 40 | 200 | 5.0 | 9.0 | 0.00 | 0.00 | 0.00 | 55 | 1016.0 |
| 20260506120104 | 40 | 317 | 2.0 | 8.0 | 0.00 | 0.00 | 0.00 | 55 | 1016.0 |
| 20260506115605 | 40 | 311 | 0.0 | 12.0 | 0.00 | 0.00 | 0.00 | 56 | 1016.0 |
| 20260506115104 | 40 | 304 | 3.0 | 10.0 | 0.00 | 0.00 | 0.00 | 56 | 1016.0 |
| 20260506114604 | 40 | 333 | 1.0 | 7.0 | 0.00 | 0.00 | 0.00 | 56 | 1016.0 |
| 20260506114105 | 40 | 341 | 6.0 | 10.0 | 0.00 | 0.00 | 0.00 | 56 | 1015.9 |
| 20260506113605 | 39 | 320 | 3.0 | 7.0 | 0.00 | 0.00 | 0.00 | 58 | 1016.0 |
| 20260506113104 | 39 | 330 | 6.0 | 15.0 | 0.00 | 0.00 | 0.00 | 56 | 1016.0 |